Flag for U.S.A. Weather past 2 weeks in Grand Junction, Colorado, U.S.A.

Now
38 °F

Sunny.


Feels Like: 38 °F
Forecast: 27 / 48 °F
Wind: No wind

Location: Walker Field

Current Time: Feb 27, 2015 at 6:56:15 PM

Latest Report: Feb 27, 2015 at 5:53 PM


Visibility: 10 mi

Pressure: 29.73 "Hg

Humidity: 58%

Dew point: 24 °F

Location of Grand JunctionLocation

Historic Weather in Grand Junction — Graph

°F

Grand Junction temperature yesterday

Maximum temperature yesterday: 42 °F (at 2:53 PM)
Minimum temperature yesterday: 19 °F (at 4:53 AM)
Average temperature yesterday: 33 °F

Past Weeks' High & Low Weather Summary

 TemperatureHumidityPressure
High63 °F (Feb 13, 3:53 PM)100% (Feb 23, 12:53 AM)30.40 "Hg (Feb 23, 12:53 AM)
Low16 °F (Feb 17, 3:53 AM)13% (Feb 18, 1:53 PM)29.73 "Hg (Feb 27, 2:53 PM)
Average36 °F57%30.08 "Hg
* Reported Feb 12 4:53 PM — Feb 27 4:53 PM, Grand Junction, Weather by CustomWeather, © 2015

Note: Actual official high and low records may vary slightly from our data, if they occured in-between our weather recording intervals... More about our weather records

Advertising

Grand Junction weather history for previous 24 hours

 ConditionsComfort  
Time TempWeatherWind HumidityBarometerVisibility
4:53 PM
Fri, Feb 27
39 °FPassing clouds.8 mph55%29.73 "Hg10 mi
3:53 PM39 °FScattered clouds.9 mph53%29.74 "Hg10 mi
2:53 PM43 °FPartly sunny.9 mph47%29.73 "Hg10 mi
1:53 PM41 °FScattered clouds.N/A49%29.75 "Hg10 mi
12:53 PM39 °FOvercast.No wind57%29.79 "Hg10 mi
11:53 AM35 °FMore clouds than sun.5 mph72%29.83 "Hg10 mi
10:53 AM33 °FOvercast.8 mph85%29.85 "Hg10 mi
9:53 AM31 °FMostly cloudy.8 mph96%29.86 "Hg9 mi
8:53 AM29 °FLight snow. Ice fog.3 mph96%29.87 "Hg6 mi
7:53 AM28 °FLight snow. Ice fog.6 mph100%29.86 "Hg1 mi
6:53 AM30 °FLight snow. Overcast.3 mph92%29.84 "Hg7 mi
5:49 AM31 °FLow clouds.7 mph96%29.82 "Hg9 mi
4:53 AM30 °FMostly cloudy.5 mph96%29.81 "Hg8 mi
4:03 AM31 °FLight snow. Ice fog.3 mph96%29.81 "Hg4 mi
3:53 AM31 °FLight snow. Ice fog.3 mph96%29.81 "Hg4 mi
2:53 AM30 °FLight snow. Ice fog.3 mph92%29.83 "Hg2 mi
1:53 AM32 °FOvercast.3 mph85%29.83 "Hg10 mi
12:53 AM33 °FMostly cloudy.7 mph75%29.83 "Hg10 mi
11:53 PM
Thu, Feb 26
34 °FMostly cloudy.No wind70%29.83 "Hg10 mi
10:53 PM34 °FMostly cloudy.3 mph70%29.85 "Hg10 mi
9:53 PM35 °FOvercast.5 mph67%29.85 "Hg10 mi
8:53 PM36 °FOvercast.5 mph62%29.86 "Hg10 mi
7:53 PM37 °FOvercast.10 mph60%29.88 "Hg10 mi
6:53 PM38 °FMostly cloudy.7 mph48%29.88 "Hg10 mi
Weather by CustomWeather, © 2015

See weather overviewHow to use our weather pages